Weather History for Warrenton, VA

Change the Weather History Date:

Friday, February 7, 2014

  Actual Average (KHEF) Record (KHEF)
Temperature  
Mean Temperature 32 °F -  
Max Temperature 44 °F 44 °F 66 °F (2009)
Min Temperature 20 °F 23 °F 12 °F (2007)
Degree Days  
Heating Degree Days 34    
Moisture  
Dew Point 26 °F    
Average Humidity 80    
Maximum Humidity 100    
Minimum Humidity 53    
Precipitation  
Precipitation 0.00 in - - ()
Sea Level Pressure  
Sea Level Pressure 30.30 in    
Wind  
Wind Speed 1 mph (ENE)    
Max Wind Speed 8 mph    
Max Gust Speed -    
Visibility 10 miles    
Events      
Averages and records for this station are not official NWS values.
T = Trace of Precipitation, MM = Missing Value Source: NWS Daily Summary

Daily Weather History Graph

Daily Weather History Graph

Search for Another Location

Airport:

Trip Planner

Search our weather history database for the weather conditions in past years. The results will help you decide how hot, cold, wet, or windy it might be!

Date:

Astronomy

Feb. 07, 2014 Rise Set
Actual Time 7:10 AM EST 5:39 PM EST
Civil Twilight 6:43 AM EST 6:07 PM EST
Nautical Twilight 6:11 AM EST 6:38 PM EST
Astronomical Twilight 5:40 AM EST 7:09 PM EST
Moon 11:50 AM EST (2/7) 1:24 AM EST (2/7)
Length of Visible Light 11h 24m
Length of Day
10h 29m
First Quarter, 59% of the Moon is Illuminated
Feb 7
First Quarter
Feb 14
Full
Feb 22
Last Quarter
Mar 1
New
Mar 8
First Quarter

Hourly Weather History & Observations

Time (EST) Temp. Windchill Dew Point Humidity Pressure Visibility Wind Dir Wind Speed Gust Speed Precip Events Conditions
12:15 AM 27.7 °F - 27.3 °F 99% 30.27 in 10.0 mi Calm Calm - N/A   Scattered Clouds
12:35 AM 27.5 °F - 27.5 °F 100% 30.27 in 10.0 mi Calm Calm - N/A   Scattered Clouds
12:55 AM 27.9 °F - 27.9 °F 100% 30.28 in 10.0 mi Calm Calm - N/A   Scattered Clouds
1:15 AM 27.3 °F - 27.3 °F 100% 30.29 in 10.0 mi Calm Calm - N/A   Mostly Cloudy
1:35 AM 26.6 °F - 26.6 °F 100% 30.28 in 10.0 mi Calm Calm - N/A   Scattered Clouds
1:55 AM 26.8 °F - 26.8 °F 100% 30.29 in 10.0 mi Calm Calm - N/A   Scattered Clouds
2:15 AM 28.2 °F - 27.3 °F 96% 30.28 in 10.0 mi Calm Calm - N/A   Mostly Cloudy
2:35 AM 27.5 °F - 27.3 °F 99% 30.28 in 10.0 mi Calm Calm - N/A   Mostly Cloudy
2:55 AM 28.0 °F - 27.5 °F 98% 30.28 in 10.0 mi Calm Calm - N/A   Mostly Cloudy
3:15 AM 26.8 °F - 26.8 °F 100% 30.28 in 10.0 mi Calm Calm - N/A   Mostly Cloudy
3:35 AM 24.8 °F - 24.8 °F 100% 30.27 in 10.0 mi Calm Calm - N/A   Scattered Clouds
3:55 AM 25.5 °F - 25.3 °F 99% 30.27 in 10.0 mi Calm Calm - N/A   Mostly Cloudy
4:15 AM 24.4 °F - 24.4 °F 100% 30.28 in 10.0 mi Calm Calm - N/A   Scattered Clouds
4:35 AM 24.3 °F 19.9 °F 24.3 °F 100% 30.28 in 10.0 mi North 3.5 mph - N/A   Clear
4:55 AM 24.8 °F 20.5 °F 24.8 °F 100% 30.28 in 10.0 mi NE 3.5 mph - N/A   Scattered Clouds
5:15 AM 23.0 °F - 23.0 °F 100% 30.29 in 10.0 mi Calm Calm - N/A   Clear
5:35 AM 22.3 °F - 22.3 °F 100% 30.29 in 10.0 mi Calm Calm - N/A   Clear
5:55 AM 21.4 °F - 21.4 °F 100% 30.30 in 7.0 mi Calm Calm - N/A   Clear
6:15 AM 21.7 °F - 21.7 °F 100% 30.31 in 10.0 mi Calm Calm - N/A   Clear
6:35 AM 21.7 °F - 21.7 °F 100% 30.32 in 7.0 mi Calm Calm - N/A   Clear
6:55 AM 21.6 °F - 21.6 °F 100% 30.32 in 7.0 mi Calm Calm - N/A   Clear
7:15 AM 20.7 °F - 20.7 °F 100% 30.32 in 5.0 mi Calm Calm - N/A   Clear
7:35 AM 21.2 °F - 21.2 °F 100% 30.33 in 7.0 mi Calm Calm - N/A   Clear
7:55 AM 22.8 °F - 22.8 °F 100% 30.33 in 7.0 mi Calm Calm - N/A   Clear
8:15 AM 25.5 °F - 25.5 °F 100% 30.34 in 10.0 mi Calm Calm - N/A   Clear
8:35 AM 28.0 °F - 27.3 °F 97% 30.34 in 10.0 mi Calm Calm - N/A   Clear
8:55 AM 30.6 °F - 28.4 °F 92% 30.34 in 10.0 mi Calm Calm - N/A   Clear
9:15 AM 32.5 °F - 28.9 °F 87% 30.35 in 10.0 mi Calm Calm - N/A   Clear
9:35 AM 33.8 °F 30.8 °F 25.7 °F 72% 30.35 in 10.0 mi NE 3.5 mph - N/A   Clear
9:55 AM 34.7 °F - 26.2 °F 71% 30.35 in 10.0 mi Calm Calm - N/A   Clear
10:15 AM 35.6 °F - 25.5 °F 67% 30.35 in 10.0 mi Calm Calm - N/A   Clear
10:35 AM 36.5 °F - 25.7 °F 65% 30.34 in 10.0 mi Calm Calm - N/A   Clear
10:55 AM 38.1 °F 35.7 °F 26.6 °F 63% 30.34 in 10.0 mi South 3.5 mph - N/A   Clear
11:15 AM 37.2 °F 34.7 °F 25.5 °F 63% 30.34 in 10.0 mi East 3.5 mph - N/A   Clear
11:35 AM 39.0 °F - 25.5 °F 58% 30.33 in 10.0 mi Calm Calm - N/A   Clear
11:55 AM 39.2 °F - 26.4 °F 60% 30.31 in 10.0 mi Calm Calm - N/A   Clear
12:15 PM 39.4 °F 37.2 °F 26.8 °F 61% 30.29 in 10.0 mi North 3.5 mph - N/A   Clear
12:35 PM 40.3 °F 38.2 °F 26.6 °F 58% 30.28 in 10.0 mi North 3.5 mph - N/A   Clear
12:55 PM 41.5 °F 39.6 °F 27.3 °F 57% 30.28 in 10.0 mi SSE 3.5 mph - N/A   Clear
1:15 PM 41.9 °F 39.0 °F 28.0 °F 58% 30.26 in 10.0 mi SSW 4.6 mph - N/A   Clear
1:35 PM 42.8 °F 38.0 °F 28.6 °F 57% 30.26 in 10.0 mi South 8.1 mph - N/A   Clear
1:55 PM 43.7 °F 40.3 °F 28.4 °F 55% 30.26 in 10.0 mi WSW 5.8 mph - N/A   Clear
2:15 PM 43.5 °F 39.4 °F 28.4 °F 55% 30.25 in 10.0 mi SW 6.9 mph - N/A   Clear
2:35 PM 43.0 °F 40.3 °F 28.4 °F 56% 30.24 in 10.0 mi West 4.6 mph - N/A   Clear
2:55 PM 43.9 °F 41.3 °F 27.5 °F 53% 30.24 in 10.0 mi WNW 4.6 mph - N/A   Clear
3:15 PM 43.7 °F 41.1 °F 29.1 °F 57% 30.24 in 10.0 mi SW 4.6 mph - N/A   Clear
3:35 PM 42.6 °F - 27.9 °F 56% 30.24 in 10.0 mi Calm Calm - N/A   Clear
3:55 PM 42.8 °F - 28.6 °F 57% 30.24 in 10.0 mi Calm Calm - N/A   Clear
4:15 PM 42.1 °F - 28.6 °F 59% 30.25 in 10.0 mi Calm Calm - N/A   Clear
4:35 PM 42.6 °F 39.9 °F 28.2 °F 57% 30.25 in 10.0 mi SSE 4.6 mph - N/A   Clear
4:55 PM 41.4 °F 39.4 °F 28.2 °F 60% 30.26 in 10.0 mi SW 3.5 mph - N/A   Clear
5:15 PM 40.1 °F - 27.7 °F 61% 30.26 in 10.0 mi Calm Calm - N/A   Clear
5:35 PM 37.9 °F - 27.5 °F 66% 30.28 in 10.0 mi Calm Calm - N/A   Clear
5:55 PM 32.5 °F - 27.7 °F 82% 30.28 in 10.0 mi Calm Calm - N/A   Clear
6:15 PM 33.1 °F - 27.5 °F 80% 30.29 in 10.0 mi Calm Calm - N/A   Clear
6:35 PM 31.5 °F - 27.9 °F 87% 30.29 in 10.0 mi Calm Calm - N/A   Clear
6:55 PM 33.8 °F 28.6 °F 28.2 °F 80% 30.31 in 10.0 mi North 5.8 mph - N/A   Clear
7:15 PM 34.0 °F 28.8 °F 27.5 °F 77% 30.31 in 10.0 mi North 5.8 mph - N/A   Clear
7:35 PM 33.3 °F 28.9 °F 26.8 °F 77% 30.31 in 10.0 mi NNE 4.6 mph - N/A   Clear
7:55 PM 33.3 °F 30.2 °F 25.7 °F 74% 30.31 in 10.0 mi ENE 3.5 mph - N/A   Clear
8:15 PM 33.1 °F 30.0 °F 25.7 °F 74% 30.31 in 10.0 mi NE 3.5 mph - N/A   Clear
8:35 PM 30.6 °F 27.1 °F 25.5 °F 82% 30.31 in 10.0 mi ENE 3.5 mph - N/A   Clear
8:55 PM 25.7 °F 21.5 °F 24.8 °F 96% 30.31 in 10.0 mi NNE 3.5 mph - N/A   Clear
9:15 PM 31.8 °F 27.3 °F 24.4 °F 74% 30.31 in 10.0 mi NE 4.6 mph - N/A   Clear
9:35 PM 31.5 °F 28.1 °F 23.7 °F 73% 30.31 in 10.0 mi ENE 3.5 mph - N/A   Clear
9:55 PM 29.8 °F 26.3 °F 23.4 °F 77% 30.31 in 10.0 mi ENE 3.5 mph - N/A   Clear
10:15 PM 28.8 °F 25.0 °F 22.8 °F 78% 30.31 in 10.0 mi East 3.5 mph - N/A   Clear
10:35 PM 28.9 °F 25.2 °F 22.5 °F 77% 30.31 in 10.0 mi East 3.5 mph - N/A   Clear
10:55 PM 26.6 °F 22.6 °F 22.5 °F 84% 30.32 in 10.0 mi East 3.5 mph - N/A   Clear
11:15 PM 29.1 °F 24.1 °F 22.8 °F 77% 30.31 in 10.0 mi ENE 4.6 mph - N/A   Clear
11:35 PM 29.7 °F 24.7 °F 23.2 °F 77% 30.31 in 10.0 mi East 4.6 mph - N/A   Clear
11:55 PM 30.0 °F 25.2 °F 22.8 °F 75% 30.32 in 10.0 mi ENE 4.6 mph - N/A   Clear